Location: ?ern� Novina
(50.6762°N, 14.8696°E)
Time: 03:03:57
(UTC+00:00)

USA 307 - Pass Details

Date: 03 March 2021
Orbit: 567 x 577 km, 54.0° (Epoch: 13 April)

Event Time Altitude Azimuth Distance (km) Brightness Sun altitude
Rises 18:17:17 0° 275° (W) 2,785 8.3 -15.3°
Reaches altitude 10° 18:19:36 10° 280° (W) 1,885 6.9 -15.7°
Maximum altitude 18:23:48 54° 358° (N) 705 3.4 -16.3°
Enters shadow 18:25:53 27° 64° (ENE) 1,114 3.9 -16.6°
